Hourly Data Report for March 04, 2004

TORONTO CITY
ONTARIO

43°40'00.000" N
79°24'00.000" W
112.50 m
6158355
71508
XTO

Download Data

Hourly Data (March 2004)
Hourly Data Report for March 4, 2004
TIME
LST
Temp Definition
°C
Dew Point Definition
°C
Rel Hum Definition
%
Precip. Amount Definition
mm

Wind Dir Definition
10's deg

Wind Spd Definition
km/h
Visibility Definition
km
Stn Press Definition
kPa
Hmdx Definition


Wind Chill Definition


Weather Definition


00:00 4.1 2.0 86   LegendMM LegendMM LegendMM 100.79     LegendNANA
01:00 4.0 2.2 88   LegendMM LegendMM LegendMM 100.77     LegendNANA
02:00 3.6 2.6 93   LegendMM LegendMM LegendMM 100.72     LegendNANA
03:00 3.3 2.4 94   LegendMM LegendMM LegendMM 100.66     LegendNANA
04:00 3.0 2.3 95   LegendMM LegendMM LegendMM 100.60     LegendNANA
05:00 2.9 2.3 96   LegendMM LegendMM LegendMM 100.64     LegendNANA
06:00 2.5 2.1 97   LegendMM LegendMM LegendMM 100.68     LegendNANA
07:00 3.0 2.7 98   LegendMM LegendMM LegendMM 100.70     LegendNANA
08:00 3.6 3.0 96   LegendMM LegendMM LegendMM 100.76     LegendNANA
09:00 4.0 2.8 92   LegendMM LegendMM LegendMM 100.75     LegendNANA
10:00 5.2 3.2 87   LegendMM LegendMM LegendMM 100.77     LegendNANA
11:00 5.9 3.4 84   LegendMM LegendMM LegendMM 100.76     LegendNANA
12:00 5.7 3.1 83   LegendMM LegendMM LegendMM 100.75     LegendNANA
13:00 5.7 3.4 85   LegendMM LegendMM LegendMM 100.76     LegendNANA
14:00 7.2 3.6 78   LegendMM LegendMM LegendMM 100.74     LegendNANA
15:00 7.0 2.9 75   LegendMM LegendMM LegendMM 100.76     LegendNANA
16:00 6.8 2.7 75   LegendMM LegendMM LegendMM 100.76     LegendNANA
17:00 6.8 2.1 72   LegendMM LegendMM LegendMM 100.78     LegendNANA
18:00 6.5 2.0 73   LegendMM LegendMM LegendMM 100.81     LegendNANA
19:00 6.3 2.0 74   LegendMM LegendMM LegendMM 100.82     LegendNANA
20:00 5.8 2.6 80   LegendMM LegendMM LegendMM 100.85     LegendNANA
21:00 5.2 2.9 85   LegendMM LegendMM LegendMM 100.81     LegendNANA
22:00 4.8 2.3 84   LegendMM LegendMM LegendMM 100.80     LegendNANA
23:00 4.8 2.0 82   LegendMM LegendMM LegendMM 100.70     LegendNANA

Notes on Data Quality.

Legend

  • E = Estimated
  • M = Missing
  • NA = Not Available*
  • [empty] = Indicates an unobserved value
Date modified: